DW9697 Weather Reports


Display with metric or nautical units.
time (UTC)temp
F
wind
direction
speed
MPH
gust
MPH
rain 1hr
in
rain 24hr
in
rain mn
in
humidity
%
barometer
mb
20260901151518 68 236 0.0 2.0 0.00 0.20 0.00 80 1017.4
20260901150010 66 219 0.0 2.0 0.00 0.20 0.00 83 1017.4
20260901144506 65 219 1.0 3.0 0.00 0.20 0.00 83 1017.5
20260901143007 65 192 1.0 3.0 0.00 0.20 0.00 83 1017.4
20260901141530 65 277 0.0 0.0 0.00 0.20 0.00 82 1017.3
20260901140020 63 277 0.0 3.0 0.00 0.20 0.00 83 1017.1
20260901134503 62 286 0.0 5.0 0.00 0.20 0.00 84 1016.8
20260901133009 61 329 0.0 3.0 0.00 0.20 0.00 85 1016.6
20260901131515 61 321 1.0 5.0 0.00 0.20 0.00 86 1016.3
20260901130020 60 305 2.0 7.0 0.00 0.20 0.00 87 1016.2
20260901124526 60 298 3.0 7.0 0.00 0.20 0.00 88 1016.1
20260901123007 60 308 1.0 3.0 0.00 0.20 0.00 89 1016.1
20260901121510 60 310 0.0 0.0 0.00 0.20 0.00 88 1016.0
20260901120016 60 310 0.0 0.0 0.00 0.20 0.00 88 1015.9
20260901114522 60 310 0.0 2.0 0.00 0.20 0.00 88 1015.8
20260901113028 60 295 1.0 3.0 0.00 0.20 0.00 89 1015.9
20260901111508 60 306 1.0 3.0 0.00 0.20 0.00 89 1015.8
20260901110014 60 304 0.0 2.0 0.00 0.20 0.00 89 1015.9
20260901104519 61 304 0.0 2.0 0.00 0.20 0.00 89 1016.0
20260901103028 61 304 0.0 2.0 0.00 0.20 0.00 88 1016.0
20260901101529 61 304 0.0 3.0 0.00 0.20 0.00 88 1016.0
20260901100011 62 296 0.0 0.0 0.00 0.20 0.00 87 1015.9
20260901094518 61 321 1.0 3.0 0.00 0.20 0.00 88 1015.7
20260901093025 61 337 1.0 4.0 0.00 0.20 0.00 89 1015.8
20260901091530 61 327 3.0 4.0 0.00 0.20 0.00 90 1015.8
20260901090028 61 298 1.0 3.0 0.00 0.20 0.00 91 1016.0
20260901084513 61 315 1.0 2.0 0.00 0.21 0.00 90 1016.0
20260901083021 62 315 0.0 2.0 0.00 0.22 0.00 91 1016.1
20260901081535 62 315 0.0 0.0 0.00 0.22 0.00 91 1016.1
20260901080006 62 315 0.0 0.0 0.00 0.22 0.00 91 1016.1
20260901074513 62 315 0.0 1.0 0.00 0.22 0.00 90 1016.3
20260901073019 63 315 0.0 2.0 0.00 0.22 0.00 91 1016.3
20260901071502 63 315 0.0 3.0 0.00 0.22 0.00 91 1016.3
20260901070003 64 304 2.0 4.0 0.00 0.22 0.00 91 1016.3
20260901064510 64 119 0.0 0.0 0.00 0.22 0.22 91 1016.5
20260901063026 65 119 0.0 0.0 0.00 0.22 0.22 91 1016.5
20260901061520 65 119 0.0 0.0 0.00 0.22 0.22 91 1016.5
20260901060003 65 119 0.0 0.0 0.00 0.22 0.22 90 1016.8
20260901054518 65 119 0.0 0.0 0.00 0.22 0.22 90 1016.8
20260901053012 66 119 0.0 0.0 0.00 0.22 0.22 90 1016.8
20260901051516 65 119 0.0 0.0 0.00 0.22 0.22 90 1016.9
20260901050024 65 96 0.0 0.0 0.00 0.22 0.22 88 1016.8
20260901044507 65 96 0.0 0.0 0.00 0.22 0.22 88 1016.9
20260901043011 65 96 0.0 0.0 0.00 0.22 0.22 89 1016.9
20260901041515 66 96 0.0 2.0 0.00 0.22 0.22 88 1016.8
20260901040018 66 96 0.0 1.0 0.00 0.22 0.22 87 1016.8
20260901034529 66 96 0.0 1.0 0.00 0.22 0.22 86 1016.6
20260901033011 67 99 0.0 2.0 0.00 0.22 0.22 84 1016.5
20260901031521 67 236 0.0 0.0 0.00 0.22 0.22 84 1016.5
20260901030016 67 236 0.0 2.0 0.00 0.22 0.22 86 1016.3
20260901024524 67 236 0.0 1.0 0.00 0.22 0.22 86 1016.1
20260901023029 67 236 0.0 2.0 0.00 0.22 0.22 84 1015.9
20260901021509 67 236 0.0 3.0 0.00 0.22 0.22 84 1015.6
20260901020014 67 236 0.0 2.0 0.00 0.22 0.22 83 1015.4
20260901014525 67 236 1.0 2.0 0.00 0.22 0.22 84 1015.0
20260901013039 67 236 0.0 2.0 0.00 0.22 0.22 83 1014.8
20260901011537 67 236 0.0 1.0 0.00 0.22 0.22 83 1014.9
20260901010010 67 236 1.0 3.0 0.00 0.22 0.22 83 1014.9
20260901004519 67 236 0.0 1.0 0.00 0.22 0.22 83 1014.5
20260901003025 66 236 1.0 3.0 0.00 0.22 0.22 83 1014.7
20260901001533 66 173 1.0 2.0 0.00 0.22 0.22 83 1014.5
20260901000031 66 173 0.0 3.0 0.00 0.22 0.22 84 1014.6
20260831234515 66 173 1.0 4.0 0.00 0.22 0.22 85 1015.0
20260831233023 66 159 1.0 4.0 0.00 0.22 0.22 86 1015.1
20260831231527 66 129 1.0 3.0 0.00 0.22 0.22 85 1015.3
20260831230028 66 93 2.0 8.0 0.00 0.22 0.22 85 1015.4
20260831224532 67 106 3.0 7.0 0.00 0.22 0.22 85 1015.5
20260831223016 67 136 3.0 4.0 0.00 0.22 0.22 86 1015.6
20260831221524 66 52 2.0 10.0 0.00 0.22 0.22 86 1016.0
20260831220006 66 34 6.0 10.0 0.02 0.22 0.22 88 1016.3
20260831214516 65 56 3.0 7.0 0.03 0.22 0.22 91 1016.6
20260831213017 64 80 2.0 6.0 0.08 0.22 0.22 90 1017.0
20260831211524 64 52 0.0 0.0 0.13 0.22 0.22 91 1017.6
20260831210005 64 309 0.0 0.0 0.17 0.20 0.20 91 1018.0
20260831204505 63 309 0.0 1.0 0.17 0.19 0.19 90 1018.2
20260831203014 63 315 3.0 9.0 0.12 0.14 0.14 89 1018.4
20260831201518 63 340 9.0 14.0 0.07 0.09 0.09 88 1018.3
20260831200042 63 328 13.0 18.0 0.01 0.03 0.03 88 1018.4
20260831194503 65 326 13.0 24.0 0.00 0.02 0.02 82 1017.9
20260831193010 68 309 15.0 21.0 0.00 0.02 0.02 73 1018.2
20260831191513 70 294 12.0 19.0 0.00 0.02 0.02 72 1017.7
20260831190031 71 327 9.0 19.0 0.00 0.02 0.02 72 1017.5
20260831184528 75 309 9.0 15.0 0.00 0.02 0.02 65 1017.4
20260831183007 75 28 2.0 10.0 0.00 0.02 0.02 63 1017.4
20260831181510 74 44 5.0 9.0 0.00 0.02 0.02 65 1017.5
20260831180016 74 49 4.0 9.0 0.00 0.02 0.02 65 1017.8
20260831174523 74 46 4.0 6.0 0.00 0.02 0.02 64 1017.7
20260831173033 74 90 1.0 4.0 0.00 0.02 0.02 66 1017.9
20260831171507 73 96 1.0 4.0 0.00 0.02 0.02 67 1017.9
20260831170017 73 54 0.0 4.0 0.00 0.02 0.02 69 1017.9
20260831164520 72 54 0.0 4.0 0.00 0.02 0.02 72 1017.7
20260831163027 71 98 1.0 7.0 0.00 0.02 0.02 77 1017.5
20260831161532 70 142 2.0 7.0 0.00 0.02 0.02 80 1017.2
20260831160015 69 105 2.0 6.0 0.00 0.02 0.02 81 1017.2
20260831154542 68 94 0.0 2.0 0.00 0.02 0.02 83 1016.9
20260831153024 67 330 0.0 2.0 0.00 0.02 0.02 84 1016.9